Zurück zum Katalog

ARIANE 5 R/B

AktivHEO
NORAD 40334·ROCKET BODY·🇫🇷 France

Gestartet Dec 6, 2014 von Guiana Space Centre

Loading…

Nächste Überflüge (nächste 24 Stunden)

TLE

AktuellSource: Space-Track

Epoche: Sep 14, 2026, 09:15 UTC

1 40334U 14078C   26257.38608976  .00004830  00000-0  73951-3 0  9996
2 40334   6.5111 304.5872 6776695 295.8053  10.8343  2.95155847109877

Verfolge ARIANE 5 R/B in Echtzeit mit AllMySat

Download on the App Store